Location: Bosdarros
(43.2167°N, 0.3667°W)
Time: 03:21:00
(UTC+00:00)

Cosmos 676 Rocket - Pass Details

Date: 22 April 2021
Orbit: 755 x 783 km, 74.0° (Epoch: 15 May)

Event Time Altitude Azimuth Distance (km) Brightness Sun altitude
Exits shadow 21:17:20 16° 210° (SSW) 1,926 5.9 -23.1°
Maximum altitude 21:21:33 69° 292° (WNW) 810 4.2 -23.6°
Drops below altitude 10° 21:26:44 10° 16° (NNE) 2,290 6.8 -24.2°
Sets 21:29:07 0° 19° (NNE) 3,218 7.6 -24.5°
